Location: Newark
(25.0000°N, 73.5000°E)
Time: 07:11:40
(UTC+00:00)

RS-15 - Pass Details

Date: 27 February 2020
Orbit: 1898 x 2146 km, 64.8° (Epoch: 04 April)

Event Time Altitude Azimuth Distance (km) Brightness Sun altitude
Rises 00:29:28 0° 330° (NNW) 5,352 10.0 -14.8°
Reaches altitude 10° 00:32:42 10° 328° (NNW) 4,377 9.5 -14.0°
Maximum altitude 00:43:51 67° 249° (WSW) 2,151 8.0 -11.5°
Drops below altitude 10° 00:55:32 10° 169° (S) 4,564 10.2 -8.9°
Sets 00:59:01 0° 166° (SSE) 5,590 10.7 -8.1°
